This is the latest recevied weather packets stored in our database for station/object W0AKY-13. If no packets are shown the sender has not sent any weather packets the latest 10 day(s).
| Time | Temp. | Humidity | Pressure | Rain* | Wind** | Luminosity | Snow |
|---|---|---|---|---|---|---|---|
| 1777221004 | 18.89° C | 73% | 1011.6 hPa | 0 mm | - | 322 W/m² | - |
| 1777220698 | 18.89° C | 72% | 1011.8 hPa | 0 mm | - | 208 W/m² | - |
| 1777220395 | 19.44° C | 72% | 1012 hPa | 0 mm | - | 235 W/m² | - |
| 1777220095 | 19.44° C | 72% | 1011.9 hPa | 0 mm | - | 483 W/m² | - |
| 1777219792 | 18.89° C | 72% | 1012.1 hPa | 0 mm | - | 371 W/m² | - |
| 1777219490 | 18.33° C | 73% | 1011.9 hPa | 0 mm | - | 330 W/m² | - |
| 1777219185 | 17.78° C | 73% | 1012 hPa | 0 mm | - | 282 W/m² | - |
| 1777218881 | 17.78° C | 73% | 1012.1 hPa | 0 mm | - | 223 W/m² | - |
| 1777218578 | 17.78° C | 73% | 1012 hPa | 0 mm | - | 193 W/m² | - |
| 1777218278 | 17.78° C | 73% | 1012.3 hPa | 0 mm | - | 111 W/m² | - |
| 1777217975 | 17.78° C | 72% | 1012.1 hPa | 0 mm | - | 148 W/m² | - |
| 1777217670 | 17.22° C | 74% | 1012.3 hPa | 0 mm | - | 247 W/m² | - |
| 1777217366 | 17.22° C | 75% | 1012.2 hPa | 0 mm | - | 212 W/m² | - |
| 1777217062 | 17.22° C | 76% | 1012.4 hPa | 0 mm | - | 98 W/m² | - |
| 1777216760 | 17.22° C | 75% | 1012.4 hPa | 0 mm | - | 123 W/m² | - |
| 1777216455 | 17.22° C | 76% | 1012.5 hPa | 0 mm | - | 142 W/m² | - |
| 1777216154 | 16.67° C | 77% | 1012.3 hPa | 0 mm | - | 196 W/m² | - |
| 1777215849 | 16.67° C | 76% | 1012.6 hPa | 0 mm | - | 168 W/m² | - |
| 1777215545 | 16.67° C | 76% | 1012.7 hPa | 0 mm | - | 184 W/m² | - |
| 1777215241 | 17.22° C | 76% | 1012.6 hPa | 0 mm | - | 235 W/m² | - |
| 1777214937 | 16.67° C | 79% | 1012.9 hPa | 0 mm | - | 237 W/m² | - |
| 1777214636 | 15.56° C | 80% | 1012.9 hPa | 0 mm | - | 213 W/m² | - |
| 1777214332 | 15.56° C | 82% | 1012.8 hPa | 0 mm | - | 150 W/m² | - |
| 1777214025 | 15° C | 82% | 1012.9 hPa | 0 mm | - | 131 W/m² | - |
| 1777213720 | 15° C | 83% | 1012.9 hPa | 0 mm | - | 115 W/m² | - |
* Rain latest hour (hover to see other rain measurements)
** Current wind speed in m/s (hover to see current wind gust speed)